Time,TemperatureF,DewpointF,PressureIn,WindDirection,WindDirectionDegrees,WindSpeedMPH,WindSpeedGustMPH,Humidity,HourlyPrecipIn,Conditions,Clouds,dailyrainin,SoftwareType,DateUTC
2013-02-22 00:11:00,41.9,41.0,30.20,WSW,249,0.0,-999.0,95,-99.99,,,0.05,weatherlink.com 1.10,2013-02-22 05:11:00,
2013-02-22 00:26:00,41.9,41.0,30.19,WSW,249,0.0,-999.0,95,-99.99,,,0.10,weatherlink.com 1.10,2013-02-22 05:26:00,
2013-02-22 00:41:00,41.6,40.0,30.18,WSW,249,0.0,-999.0,95,-99.99,,,0.13,weatherlink.com 1.10,2013-02-22 05:41:00,
2013-02-22 00:56:00,41.7,40.0,30.17,WSW,250,0.0,-999.0,95,-99.99,,,0.15,weatherlink.com 1.10,2013-02-22 05:56:00,
2013-02-22 01:11:00,42.0,41.0,30.16,SW,223,0.0,-999.0,95,-99.99,,,0.17,weatherlink.com 1.10,2013-02-22 06:11:00,
2013-02-22 01:26:00,41.9,41.0,30.16,SW,223,0.0,-999.0,95,-99.99,,,0.20,weatherlink.com 1.10,2013-02-22 06:26:00,
2013-02-22 01:41:00,42.1,41.0,30.14,SW,223,1.0,-999.0,95,-99.99,,,0.23,weatherlink.com 1.10,2013-02-22 06:41:00,
2013-02-22 01:56:00,42.5,41.0,30.16,SW,226,0.0,-999.0,95,-99.99,,,0.26,weatherlink.com 1.10,2013-02-22 06:56:00,
2013-02-22 02:11:00,42.8,42.0,30.14,East,93,0.0,-999.0,95,-99.99,,,0.30,weatherlink.com 1.10,2013-02-22 07:11:00,
2013-02-22 02:26:00,42.7,41.0,30.13,ESE,105,0.0,-999.0,95,-99.99,,,0.36,weatherlink.com 1.10,2013-02-22 07:26:00,
2013-02-22 02:41:00,42.9,41.0,30.12,ESE,102,1.0,-999.0,94,-99.99,,,0.44,weatherlink.com 1.10,2013-02-22 07:41:00,
2013-02-22 02:56:00,43.0,42.0,30.12,ESE,102,0.0,-999.0,95,-99.99,,,0.54,weatherlink.com 1.10,2013-02-22 07:56:00,
2013-02-22 03:11:00,42.8,42.0,30.12,ESE,102,0.0,-999.0,95,-99.99,,,0.65,weatherlink.com 1.10,2013-02-22 08:11:00,
2013-02-22 03:26:00,42.5,41.0,30.12,East,101,0.0,-999.0,95,-99.99,,,0.70,weatherlink.com 1.10,2013-02-22 08:26:00,
2013-02-22 03:41:00,42.3,41.0,30.12,ENE,78,0.0,-999.0,95,-99.99,,,0.73,weatherlink.com 1.10,2013-02-22 08:41:00,
2013-02-22 03:56:00,42.0,41.0,30.13,ENE,78,0.0,-999.0,95,-99.99,,,0.76,weatherlink.com 1.10,2013-02-22 08:56:00,
2013-02-22 04:11:00,41.9,41.0,30.14,ENE,77,0.0,-999.0,95,-99.99,,,0.77,weatherlink.com 1.10,2013-02-22 09:11:00,
2013-02-22 04:26:00,41.8,41.0,30.13,ENE,77,0.0,-999.0,95,-99.99,,,0.78,weatherlink.com 1.10,2013-02-22 09:26:00,
2013-02-22 04:41:00,41.7,40.0,30.14,ENE,77,0.0,-999.0,95,-99.99,,,0.79,weatherlink.com 1.10,2013-02-22 09:41:00,
2013-02-22 04:56:00,41.7,40.0,30.14,ENE,77,0.0,-999.0,95,-99.99,,,0.81,weatherlink.com 1.10,2013-02-22 09:56:00,
2013-02-22 05:11:00,41.8,41.0,30.15,NNW,337,0.0,-999.0,95,-99.99,,,0.82,weatherlink.com 1.10,2013-02-22 10:11:00,
2013-02-22 05:26:00,41.9,41.0,30.15,NNW,333,0.0,-999.0,95,-99.99,,,0.82,weatherlink.com 1.10,2013-02-22 10:26:00,
2013-02-22 05:41:00,41.9,41.0,30.15,NNW,333,0.0,-999.0,95,-99.99,,,0.82,weatherlink.com 1.10,2013-02-22 10:41:00,
2013-02-22 05:56:00,41.8,41.0,30.15,NNW,333,2.0,-999.0,95,-99.99,,,0.82,weatherlink.com 1.10,2013-02-22 10:56:00,
2013-02-22 06:11:00,41.6,40.0,30.15,NNW,333,0.0,-999.0,95,-99.99,,,0.82,weatherlink.com 1.10,2013-02-22 11:11:00,
2013-02-22 06:26:00,41.4,40.0,30.15,NNW,333,0.0,-999.0,95,-99.99,,,0.82,weatherlink.com 1.10,2013-02-22 11:26:00,
2013-02-22 06:41:00,41.3,40.0,30.14,NNW,333,0.0,-999.0,94,-99.99,,,0.82,weatherlink.com 1.10,2013-02-22 11:41:00,
2013-02-22 06:56:00,41.3,40.0,30.14,NNW,333,0.0,-999.0,94,-99.99,,,0.82,weatherlink.com 1.10,2013-02-22 11:56:00,
2013-02-22 07:11:00,41.1,40.0,30.14,NNW,333,0.0,-999.0,95,-99.99,,,0.82,weatherlink.com 1.10,2013-02-22 12:11:00,
2013-02-22 07:26:00,41.0,40.0,30.14,NNW,333,0.0,-999.0,95,-99.99,,,0.82,weatherlink.com 1.10,2013-02-22 12:26:00,
2013-02-22 07:41:00,41.0,40.0,30.15,NNW,333,0.0,-999.0,95,-99.99,,,0.82,weatherlink.com 1.10,2013-02-22 12:41:00,
2013-02-22 07:56:00,41.1,40.0,30.15,NNW,333,0.0,-999.0,95,-99.99,,,0.82,weatherlink.com 1.10,2013-02-22 12:56:00,
2013-02-22 08:11:00,41.1,40.0,30.16,NNW,333,0.0,-999.0,95,-99.99,,,0.82,weatherlink.com 1.10,2013-02-22 13:11:00,
2013-02-22 08:26:00,41.1,40.0,30.16,NNW,333,0.0,-999.0,95,-99.99,,,0.82,weatherlink.com 1.10,2013-02-22 13:26:00,
2013-02-22 08:41:00,41.3,40.0,30.16,NNW,333,0.0,-999.0,95,-99.99,,,0.82,weatherlink.com 1.10,2013-02-22 13:41:00,
2013-02-22 08:56:00,41.6,40.0,30.16,NNW,333,0.0,-999.0,95,-99.99,,,0.82,weatherlink.com 1.10,2013-02-22 13:56:00,
2013-02-22 09:11:00,41.8,41.0,30.17,NNW,333,0.0,-999.0,95,-99.99,,,0.82,weatherlink.com 1.10,2013-02-22 14:11:00,
2013-02-22 09:26:00,41.9,41.0,30.17,NNW,333,0.0,-999.0,95,-99.99,,,0.82,weatherlink.com 1.10,2013-02-22 14:26:00,
2013-02-22 09:41:00,42.2,41.0,30.16,NNW,333,0.0,-999.0,95,-99.99,,,0.82,weatherlink.com 1.10,2013-02-22 14:41:00,
2013-02-22 09:56:00,42.3,41.0,30.16,NNW,333,0.0,-999.0,95,-99.99,,,0.82,weatherlink.com 1.10,2013-02-22 14:56:00,
2013-02-22 10:11:00,42.7,41.0,30.15,NNW,333,0.0,-999.0,95,-99.99,,,0.82,weatherlink.com 1.10,2013-02-22 15:11:00,
2013-02-22 10:26:00,42.7,41.0,30.14,NNW,333,0.0,-999.0,94,-99.99,,,0.82,weatherlink.com 1.10,2013-02-22 15:26:00,
2013-02-22 10:41:00,43.3,41.0,30.15,NNW,333,0.0,-999.0,91,-99.99,,,0.82,weatherlink.com 1.10,2013-02-22 15:41:00,
2013-02-22 10:56:00,43.7,41.0,30.15,NNW,333,0.0,-999.0,90,-99.99,,,0.82,weatherlink.com 1.10,2013-02-22 15:56:00,
2013-02-22 11:11:00,44.2,42.0,30.16,NNW,333,0.0,-999.0,90,-99.99,,,0.82,weatherlink.com 1.10,2013-02-22 16:11:00,
2013-02-22 11:27:00,44.2,41.0,30.16,NNW,333,0.0,-999.0,89,-99.99,,,0.82,weatherlink.com 1.10,2013-02-22 16:27:00,
2013-02-22 11:42:00,44.7,42.0,30.16,NNW,333,0.0,-999.0,89,-99.99,,,0.82,weatherlink.com 1.10,2013-02-22 16:42:00,
2013-02-22 11:57:00,45.0,42.0,30.15,NNW,333,0.0,-999.0,89,-99.99,,,0.82,weatherlink.com 1.10,2013-02-22 16:57:00,
2013-02-22 12:12:00,45.4,42.0,30.15,NNW,333,0.0,-999.0,89,-99.99,,,0.82,weatherlink.com 1.10,2013-02-22 17:12:00,
2013-02-22 12:27:00,45.5,43.0,30.15,NNW,333,0.0,-999.0,89,-99.99,,,0.82,weatherlink.com 1.10,2013-02-22 17:27:00,
2013-02-22 12:42:00,45.8,43.0,30.14,NNW,333,0.0,-999.0,89,-99.99,,,0.82,weatherlink.com 1.10,2013-02-22 17:42:00,
2013-02-22 12:57:00,46.1,43.0,30.14,NNW,333,0.0,-999.0,89,-99.99,,,0.82,weatherlink.com 1.10,2013-02-22 17:57:00,
2013-02-22 13:12:00,46.6,44.0,30.13,NNW,333,0.0,-999.0,89,-99.99,,,0.82,weatherlink.com 1.10,2013-02-22 18:12:00,
2013-02-22 13:27:00,46.9,44.0,30.13,NNW,333,0.0,-999.0,90,-99.99,,,0.82,weatherlink.com 1.10,2013-02-22 18:27:00,
2013-02-22 13:42:00,46.9,44.0,30.13,NNW,333,0.0,-999.0,89,-99.99,,,0.82,weatherlink.com 1.10,2013-02-22 18:42:00,
2013-02-22 13:57:00,47.2,44.0,30.12,NNW,333,0.0,-999.0,89,-99.99,,,0.82,weatherlink.com 1.10,2013-02-22 18:57:00,
2013-02-22 14:12:00,47.5,45.0,30.12,NNW,333,0.0,-999.0,92,-99.99,,,0.82,weatherlink.com 1.10,2013-02-22 19:12:00,
2013-02-22 14:27:00,47.8,45.0,30.11,NNW,333,0.0,-999.0,89,-99.99,,,0.82,weatherlink.com 1.10,2013-02-22 19:27:00,
2013-02-22 14:42:00,47.8,45.0,30.12,NNW,333,0.0,-999.0,89,-99.99,,,0.82,weatherlink.com 1.10,2013-02-22 19:42:00,
2013-02-22 14:57:00,47.7,44.0,30.11,NNW,333,0.0,-999.0,88,-99.99,,,0.82,weatherlink.com 1.10,2013-02-22 19:57:00,
2013-02-22 15:12:00,47.2,44.0,30.12,NNW,333,0.0,-999.0,88,-99.99,,,0.82,weatherlink.com 1.10,2013-02-22 20:12:00,
2013-02-22 15:27:00,47.2,44.0,30.11,NNW,333,0.0,-999.0,88,-99.99,,,0.82,weatherlink.com 1.10,2013-02-22 20:27:00,
2013-02-22 15:42:00,47.1,44.0,30.11,NNW,333,0.0,-999.0,88,-99.99,,,0.82,weatherlink.com 1.10,2013-02-22 20:42:00,
2013-02-22 15:57:00,47.2,45.0,30.10,NNW,333,0.0,-999.0,90,-99.99,,,0.82,weatherlink.com 1.10,2013-02-22 20:57:00,
2013-02-22 16:12:00,47.4,44.0,30.09,NNW,333,0.0,-999.0,89,-99.99,,,0.82,weatherlink.com 1.10,2013-02-22 21:12:00,
2013-02-22 16:27:00,47.3,44.0,30.09,NNW,333,0.0,-999.0,89,-99.99,,,0.82,weatherlink.com 1.10,2013-02-22 21:27:00,
2013-02-22 16:42:00,47.2,44.0,30.10,NNW,333,0.0,-999.0,89,-99.99,,,0.82,weatherlink.com 1.10,2013-02-22 21:42:00,
2013-02-22 16:57:00,47.1,44.0,30.09,NNW,333,0.0,-999.0,90,-99.99,,,0.82,weatherlink.com 1.10,2013-02-22 21:57:00,
2013-02-22 17:12:00,47.0,44.0,30.09,NNW,333,0.0,-999.0,90,-99.99,,,0.82,weatherlink.com 1.10,2013-02-22 22:12:00,
2013-02-22 17:27:00,46.9,44.0,30.09,NNW,333,0.0,-999.0,90,-99.99,,,0.82,weatherlink.com 1.10,2013-02-22 22:27:00,
2013-02-22 17:42:00,46.8,44.0,30.09,NNW,333,0.0,-999.0,91,-99.99,,,0.82,weatherlink.com 1.10,2013-02-22 22:42:00,
2013-02-22 17:57:00,46.6,44.0,30.09,NNW,333,0.0,-999.0,91,-99.99,,,0.82,weatherlink.com 1.10,2013-02-22 22:57:00,
2013-02-22 18:12:00,46.5,44.0,30.10,NNW,333,0.0,-999.0,92,-99.99,,,0.82,weatherlink.com 1.10,2013-02-22 23:12:00,
2013-02-22 18:27:00,46.5,44.0,30.12,NNW,333,0.0,-999.0,92,-99.99,,,0.82,weatherlink.com 1.10,2013-02-22 23:27:00,
2013-02-22 18:42:00,46.3,44.0,30.11,NNW,333,0.0,-999.0,92,-99.99,,,0.82,weatherlink.com 1.10,2013-02-22 23:42:00,
2013-02-22 18:57:00,46.0,44.0,30.12,NNW,333,0.0,-999.0,93,-99.99,,,0.82,weatherlink.com 1.10,2013-02-22 23:57:00,
2013-02-22 19:12:00,45.9,44.0,30.12,NNW,333,0.0,-999.0,93,-99.99,,,0.82,weatherlink.com 1.10,2013-02-23 00:12:00,
2013-02-22 19:27:00,45.8,44.0,30.12,NNW,333,0.0,-999.0,94,-99.99,,,0.82,weatherlink.com 1.10,2013-02-23 00:27:00,
2013-02-22 19:42:00,45.7,44.0,30.11,NNW,333,0.0,-999.0,94,-99.99,,,0.82,weatherlink.com 1.10,2013-02-23 00:42:00,
2013-02-22 19:57:00,45.6,44.0,30.12,NNW,333,0.0,-999.0,94,-99.99,,,0.82,weatherlink.com 1.10,2013-02-23 00:57:00,
2013-02-22 20:12:00,45.5,44.0,30.11,NNW,333,0.0,-999.0,95,-99.99,,,0.82,weatherlink.com 1.10,2013-02-23 01:12:00,
2013-02-22 20:27:00,45.4,44.0,30.11,NNW,333,0.0,-999.0,95,-99.99,,,0.82,weatherlink.com 1.10,2013-02-23 01:27:00,
2013-02-22 20:42:00,45.1,44.0,30.08,NNW,333,0.0,-999.0,95,-99.99,,,0.82,weatherlink.com 1.10,2013-02-23 01:42:00,
2013-02-22 20:57:00,44.8,44.0,30.08,NNW,333,0.0,-999.0,95,-99.99,,,0.82,weatherlink.com 1.10,2013-02-23 01:57:00,
2013-02-22 21:12:00,44.7,43.0,30.09,NNW,333,0.0,-999.0,95,-99.99,,,0.82,weatherlink.com 1.10,2013-02-23 02:12:00,
2013-02-22 21:27:00,44.6,43.0,30.09,NNW,333,0.0,-999.0,95,-99.99,,,0.82,weatherlink.com 1.10,2013-02-23 02:27:00,
2013-02-22 21:42:00,44.6,43.0,30.09,NNW,333,0.0,-999.0,95,-99.99,,,0.82,weatherlink.com 1.10,2013-02-23 02:42:00,
2013-02-22 21:57:00,44.6,43.0,30.11,NNW,338,0.0,-999.0,95,-99.99,,,0.82,weatherlink.com 1.10,2013-02-23 02:57:00,
2013-02-22 22:12:00,44.6,43.0,30.11,NNW,338,0.0,-999.0,95,-99.99,,,0.82,weatherlink.com 1.10,2013-02-23 03:12:00,
2013-02-22 22:27:00,44.7,43.0,30.14,ESE,119,2.0,-999.0,95,-99.99,,,0.83,weatherlink.com 1.10,2013-02-23 03:27:00,
2013-02-22 22:42:00,45.9,45.0,30.13,ENE,59,2.0,-999.0,96,-99.99,,,0.85,weatherlink.com 1.10,2013-02-23 03:42:00,
2013-02-22 22:57:00,46.3,45.0,30.11,East,96,0.0,-999.0,96,-99.99,,,0.89,weatherlink.com 1.10,2013-02-23 03:57:00,
2013-02-22 23:12:00,47.2,46.0,30.09,East,96,2.0,-999.0,96,-99.99,,,0.92,weatherlink.com 1.10,2013-02-23 04:12:00,
2013-02-22 23:27:00,47.3,46.0,30.08,East,96,0.0,-999.0,96,-99.99,,,0.93,weatherlink.com 1.10,2013-02-23 04:27:00,
2013-02-22 23:42:00,47.2,46.0,30.08,East,96,1.0,-999.0,96,-99.99,,,0.93,weatherlink.com 1.10,2013-02-23 04:42:00,
2013-02-22 23:57:00,46.4,45.0,30.07,East,96,1.0,-999.0,95,-99.99,,,0.93,weatherlink.com 1.10,2013-02-23 04:57:00,